{"data":{"norad_id":49336,"intl_designator":"2021-096A","name":"QZS-1R (QZSS/PRN 196)","alt_names":[],"object_type":"PAYLOAD","status":"ACTIVE","operator":null,"country":"JPN","launch_date":"2021-10-26","launch_site_code":"TANSC","launch_vehicle":null,"mission":null,"orbit_class":"UNKNOWN","rcs_meters":null,"size_class":null,"mass_kg":null,"dimensions":null,"purposes":["comms","nav"],"wikipedia_slug":null,"has_3d_model":false,"image_url":null,"decayed_at":null,"tle_current":{"epoch":"2026-09-19T09:00:52.683264Z","epoch_age_seconds":111573,"freshness":"FRESH","line1":"1 49336U 21096A   26262.37560976 -.00000243  00000+0  00000+0 0  9992","line2":"2 49336  37.6559  78.1899 0744215 269.9680 279.7267  1.00286329 17950","mean_motion":1.00286329,"eccentricity":0.0744215,"inclination_deg":37.6559,"raan_deg":78.1899,"arg_perigee_deg":269.968,"mean_anomaly_deg":279.7267,"bstar":0,"rev_number":1795,"period_min":1435.8886344319,"perigee_km":32644.859038632,"apogee_km":38920.177446934,"semimajor_km":42160.655242783,"source":"CELESTRAK","updated_at":"2026-09-20T09:00:46.840057Z"}}}